QPF
0.00 0.00 0.00 0.00 0.00 0.00 0.00 0.00 0.00 0.00 0.00 0.00 0.00 0.00 0.00 0.00 0.00 0.00 0.00 0.00 0.00 0.00
0.00 0.00 0.00 0.00 0.00 0.00 0.00 0.00 0.00 0.00 0.00 0.00 0.00 0.00 0.00 0.00 0.00 0.00 0.00 0.00 0.00 0.00
0.00 0.00 0.00 0.00 0.00 0.00 0.00 0.00 0.00 0.00 0.00 0.00 0.00 0.00 0.00 0.00 0.00 0.00 0.00 0.00 0.00 0.00
0.00 0.00 0.00 0.00 0.00 0.00 0.00 0.00 0.00 0.00 0.00 0.00 0.00 0.00 0.00 0.00 0.00 0.00 0.00 0.00 0.00 0.00
0.00 0.00 0.00 0.00 0.00 0.00 0.00 0.00 0.00 0.00 0.00 0.00 0.00 0.00 0.00 0.00 0.00 0.00 0.00 0.00 0.00 0.00
0.00 0.00 0.00 0.00 0.00 0.00 0.00 0.00 0.00 0.00 0.00 0.00 0.00 0.00 0.00 0.00 0.00 0.00 0.00 0.00 0.00 0.00
0.00 0.00 0.00 0.00 0.00 0.00 0.00 0.00 0.00 0.00 0.00 0.00 0.00 0.00 0.00 0.00 0.00 0.00 0.00 0.00 0.00 0.00
0.00 0.00 0.00 0.00 0.00 0.00 0.00 0.00 0.00 0.00 0.00 0.00 0.00 0.00 0.00 0.00 0.00 0.00 0.00 0.00 0.00 0.00
0.00 0.00 0.00 0.00 0.00 0.00 0.00 0.00 0.00 0.00 0.00 0.00 0.00 0.00 0.00 0.00 0.00 0.00 0.00 0.00 0.00 0.00
0.00 0.00 0.00 0.00 0.00 0.00 0.00 0.00 0.00 0.00 0.00 0.00 0.00 0.00 0.00 0.00 0.00 0.00 0.00 0.00 0.00 0.00
0.00 0.00 0.00 0.00 0.00 0.00 0.00 0.00 0.00 0.00 0.00 0.00 0.00 0.00 0.00 0.00 0.00 0.00 0.00 0.00 0.00 0.00
0.00 0.00 0.00 0.00 0.00 0.00 0.00 0.00 0.00 0.00 0.00 0.00 0.00 0.00 0.00 0.00 0.00 0.00 0.00 0.00 0.00 0.00
0.00 0.00 0.00 0.00 0.00 0.00 0.00 0.00 0.00 0.00 0.00 0.00 0.00 0.00 0.00 0.00 0.00 0.00 0.00 0.00 0.00 0.00
0.00 0.00 0.00 0.00 0.00 0.00 0.00 0.00 0.00 0.00 0.00 0.00 0.00 0.00 0.00 0.00 0.00 0.00 0.00 0.00 0.00 0.00
MSLP
1015.19 1015.77 1016.22 1016.48 1016.72 1016.88 1016.98 1017.06 1017.05 1016.99 1016.85 1016.72 1016.46 1016.36 1016.20 1016.10 1015.95 1015.75 1015.63 1015.44 1015.14 1014.76
1015.71 1016.16 1016.53 1016.69 1016.82 1017.02 1017.09 1017.11 1017.07 1016.98 1016.99 1016.81 1016.60 1016.48 1016.32 1016.14 1015.94 1015.73 1015.43 1015.13 1014.82 1014.55
1016.07 1016.41 1016.60 1016.80 1017.02 1017.08 1017.17 1017.18 1017.09 1017.09 1017.02 1016.90 1016.75 1016.59 1016.37 1016.14 1015.83 1015.57 1015.26 1014.89 1014.67 1014.41
1016.32 1016.52 1016.76 1016.95 1017.09 1017.18 1017.22 1017.20 1017.22 1017.21 1017.11 1016.97 1016.74 1016.45 1016.21 1015.91 1015.50 1015.22 1014.92 1014.67 1014.46 1014.13
1016.40 1016.64 1016.93 1017.09 1017.18 1017.18 1017.23 1017.30 1017.34 1017.25 1017.08 1016.80 1016.47 1016.13 1015.84 1015.57 1015.21 1014.95 1014.77 1014.46 1014.13 1013.80
1016.67 1016.87 1017.10 1017.20 1017.22 1017.24 1017.32 1017.34 1017.25 1017.14 1016.90 1016.57 1016.16 1015.75 1015.35 1015.07 1014.76 1014.55 1014.35 1014.11 1013.92 1013.56
1016.89 1017.02 1017.13 1017.17 1017.25 1017.32 1017.31 1017.27 1017.19 1016.99 1016.68 1016.27 1015.81 1015.44 1015.00 1014.61 1014.32 1014.06 1013.85 1013.78 1013.65 1013.26
1016.90 1016.98 1017.10 1017.25 1017.27 1017.28 1017.26 1017.21 1017.08 1016.86 1016.47 1016.01 1015.62 1015.06 1014.56 1014.14 1013.76 1013.58 1013.51 1013.40 1013.21 1012.82
1016.95 1017.07 1017.22 1017.26 1017.31 1017.33 1017.33 1017.22 1017.02 1016.77 1016.41 1015.90 1015.41 1014.88 1014.33 1013.76 1013.29 1013.16 1013.16 1013.02 1012.64 1012.26
1017.04 1017.27 1017.34 1017.38 1017.47 1017.54 1017.50 1017.32 1017.04 1016.59 1016.19 1015.78 1015.26 1014.67 1013.96 1013.37 1012.93 1012.81 1012.73 1012.41 1011.97 1011.54
1017.19 1017.30 1017.42 1017.61 1017.78 1017.74 1017.52 1017.34 1016.95 1016.46 1015.97 1015.64 1015.15 1014.43 1013.75 1013.06 1012.57 1012.33 1012.10 1011.79 1011.42 1010.98
1017.29 1017.44 1017.62 1017.87 1017.90 1017.71 1017.52 1017.14 1016.69 1016.15 1015.87 1015.63 1015.08 1014.36 1013.55 1012.82 1012.38 1012.18 1011.82 1011.37 1011.02 1010.64
1017.39 1017.59 1017.77 1017.94 1017.89 1017.55 1017.29 1016.92 1016.40 1016.09 1015.86 1015.42 1014.85 1014.32 1013.74 1013.10 1012.57 1011.89 1011.34 1010.89 1010.58 1010.16
1017.52 1017.69 1017.77 1017.81 1017.65 1017.40 1016.99 1016.62 1016.45 1016.23 1015.63 1015.12 1014.65 1014.19 1013.63 1013.03 1012.35 1011.82 1011.07 1010.58 1010.01 1009.36
Thickness
5606 5598 5591 5587 5581 5576 5572 5567 5564 5560 5556 5552 5548 5542 5537 5530 5523 5517 5507 5500 5493 5487
5593 5587 5581 5577 5573 5567 5563 5559 5554 5549 5544 5539 5534 5528 5522 5515 5507 5500 5492 5486 5479 5471
5583 5577 5574 5568 5563 5559 5553 5548 5544 5537 5532 5526 5519 5513 5506 5499 5492 5485 5478 5472 5464 5455
5573 5570 5564 5559 5554 5548 5543 5538 5532 5525 5518 5512 5505 5499 5492 5485 5479 5473 5465 5456 5447 5439
5566 5561 5555 5549 5544 5539 5533 5526 5519 5512 5505 5499 5492 5486 5479 5473 5466 5460 5450 5440 5430 5420
5556 5551 5545 5539 5534 5528 5521 5513 5507 5500 5492 5485 5479 5474 5468 5461 5454 5444 5433 5422 5410 5399
5546 5540 5535 5530 5523 5516 5509 5501 5493 5485 5478 5472 5467 5462 5456 5449 5440 5429 5418 5404 5389 5375
5536 5531 5525 5519 5511 5504 5497 5489 5480 5472 5465 5459 5454 5450 5443 5436 5427 5414 5400 5384 5366 5351
5526 5520 5514 5507 5500 5491 5482 5474 5466 5457 5452 5446 5440 5434 5427 5419 5410 5396 5378 5362 5347 5329
5515 5509 5501 5494 5486 5477 5467 5459 5452 5446 5440 5433 5424 5419 5412 5403 5392 5375 5357 5340 5325 5310
5504 5497 5489 5480 5471 5462 5454 5446 5441 5435 5426 5418 5409 5401 5393 5384 5371 5354 5337 5319 5303 5290
5492 5484 5475 5465 5456 5449 5441 5435 5430 5422 5414 5403 5393 5383 5373 5361 5349 5332 5315 5299 5283 5271
5479 5471 5462 5452 5444 5437 5431 5425 5419 5411 5398 5387 5375 5361 5348 5333 5318 5309 5295 5281 5267 5255
5467 5458 5449 5439 5433 5427 5423 5416 5406 5396 5385 5371 5356 5341 5327 5311 5295 5278 5271 5261 5252 5241